Location: Newark
(45.5000°N, 11.4167°E)
Time: 23:30:32
(UTC+00:00)

A-11 Canister half - Pass Details

Date: 21 August 2019
Orbit: 1514 x 1686 km, 47.2° (Epoch: 15 September)

Event Time Altitude Azimuth Distance (km) Brightness Sun altitude
Rises 01:02:41 0° 292° (WNW) 4,854 11.6 -27.6°
Reaches altitude 10° 01:06:20 10° 282° (WNW) 3,889 10.9 -27.3°
Enters shadow 01:09:25 19° 268° (W) 3,220 10.4 -27.0°
Maximum altitude 01:14:18 28° 228° (SW) 2,744 - -26.5°
Drops below altitude 10° 01:22:24 10° 175° (S) 3,939 - -25.8°
Sets 01:26:09 0° 164° (SSE) 4,927 - -25.4°
